When you browse on this site, cookies collect data to enhance your experience and personalize the content and advertising you see.
Visit our Privacy Policy to learn more. By continuing to use the site, you agree to this use of cookies and data.
  • In Latvia
  • List of Countries
  • For 7 days
  • Water Temperature
  • Satellite Maps
  • Weather Map
  • Weather Widgets
  • user-avatar
    Login

    Hourly Weather Encamp

    Today, 16 July, Tuesday

    Time Temperature Precipitation Wind Pressure Humidity
    00:00 +8°C° 0 mm 2 mps 623 mmHg 64%
    01:00 +7°C° 0 mm 2 mps 623 mmHg 58%
    02:00 +8°C° 0 mm 1 mps 623 mmHg 52%
    03:00 +8°C° 0 mm 1 mps 623 mmHg 46%
    04:00 +9°C° 0 mm 1 mps 623 mmHg 46%
    05:00 +11°C° 0 mm 1 mps 624 mmHg 47%
    06:00 +12°C° 0 mm 1 mps 625 mmHg 50%
    07:00 +15°C° 0 mm 1 mps 626 mmHg 46%
    08:00 +18°C° 0 mm 1 mps 627 mmHg 42%
    09:00 +20°C° 0 mm 1 mps 627 mmHg 38%
    10:00 +20°C° 0 mm 2 mps 628 mmHg 38%
    11:00 +21°C° 0 mm 2 mps 628 mmHg 37%
    12:00 +23°C° 0 mm 2 mps 628 mmHg 37%
    13:00 +23°C° 0 mm 2 mps 628 mmHg 37%
    14:00 +23°C° 0 mm 2 mps 628 mmHg 38%
    15:00 +23°C° 0 mm 2 mps 628 mmHg 39%
    16:00 +22°C° 0 mm 1 mps 627 mmHg 45%
    17:00 +21°C° 0 mm 1 mps 627 mmHg 51%
    18:00 +20°C° 0 mm 1 mps 626 mmHg 57%
    19:00 +18°C° 0 mm 1 mps 626 mmHg 65%
    20:00 +15°C° 0 mm 1 mps 625 mmHg 72%
    21:00 +12°C° 0 mm 1 mps 624 mmHg 79%
    22:00 +12°C° 0 mm 1 mps 624 mmHg 79%
    23:00 +12°C° 0 mm 1 mps 624 mmHg 79%

    Tomorrow, 17 July, Wednesday

    Time Temperature Precipitation Wind Pressure Humidity
    00:00 +12°C° 0 mm 1 mps 624 mmHg 79%
    01:00 +12°C° 0 mm 1 mps 624 mmHg 80%
    02:00 +12°C° 0 mm 1 mps 624 mmHg 80%
    03:00 +11°C° 0 mm 1 mps 623 mmHg 80%
    04:00 +12°C° 0 mm 1 mps 624 mmHg 79%
    05:00 +13°C° 0 mm 1 mps 624 mmHg 77%
    06:00 +14°C° 0 mm 1 mps 625 mmHg 76%
    07:00 +16°C° 0 mm 1 mps 625 mmHg 69%
    08:00 +19°C° 0 mm 1 mps 626 mmHg 62%
    09:00 +20°C° 0 mm 1 mps 627 mmHg 55%
    10:00 +20°C° 0.4 mm 1 mps 627 mmHg 58%
    11:00 +20°C° 0.4 mm 1 mps 626 mmHg 61%
    12:00 +20°C° 0.4 mm 1 mps 626 mmHg 64%
    13:00 +20°C° 1 mm 1 mps 626 mmHg 67%
    14:00 +20°C° 1 mm 1 mps 626 mmHg 69%
    15:00 +19°C° 1 mm 1 mps 625 mmHg 72%
    16:00 +18°C° 2.3 mm 1 mps 625 mmHg 78%
    17:00 +16°C° 2.3 mm 1 mps 624 mmHg 84%
    18:00 +15°C° 2.3 mm 1 mps 624 mmHg 90%
    19:00 +14°C° 0.3 mm 1 mps 624 mmHg 91%
    20:00 +13°C° 0.3 mm 1 mps 624 mmHg 92%
    21:00 +12°C° 0.3 mm 2 mps 624 mmHg 93%
    22:00 +12°C° 0 mm 1 mps 624 mmHg 93%
    23:00 +12°C° 0 mm 1 mps 624 mmHg 93%

    Day after tomorrow, 18 July, Thursday

    Time Temperature Precipitation Wind Pressure Humidity
    00:00 +11°C° 0 mm 1 mps 623 mmHg 94%
    01:00 +11°C° 0 mm 1 mps 623 mmHg 93%
    02:00 +11°C° 0 mm 1 mps 623 mmHg 93%
    03:00 +11°C° 0 mm 1 mps 623 mmHg 92%
    04:00 +11°C° 0 mm 1 mps 623 mmHg 91%
    05:00 +12°C° 0 mm 1 mps 624 mmHg 91%
    06:00 +13°C° 0 mm 1 mps 624 mmHg 90%
    07:00 +15°C° 0 mm 1 mps 625 mmHg 83%
    08:00 +18°C° 0 mm 1 mps 626 mmHg 76%
    09:00 +20°C° 0 mm 1 mps 627 mmHg 69%
    10:00 +20°C° 0.3 mm 1 mps 627 mmHg 68%
    11:00 +19°C° 0.3 mm 2 mps 627 mmHg 67%
    12:00 +20°C° 0.3 mm 2 mps 627 mmHg 66%
    13:00 +19°C° 0.7 mm 2 mps 626 mmHg 71%
    14:00 +19°C° 0.7 mm 1 mps 626 mmHg 77%
    15:00 +18°C° 0.7 mm 1 mps 625 mmHg 82%
    16:00 +18°C° 0.5 mm 1 mps 625 mmHg 84%
    17:00 +16°C° 0.5 mm 1 mps 625 mmHg 86%
    18:00 +16°C° 0.5 mm 1 mps 625 mmHg 88%
    19:00 +15°C° 0.1 mm 1 mps 625 mmHg 90%
    20:00 +14°C° 0.1 mm 1 mps 625 mmHg 92%
    21:00 +13°C° 0.1 mm 1 mps 625 mmHg 94%
    22:00 +13°C° 0 mm 1 mps 625 mmHg 95%
    23:00 +12°C° 0 mm 0 mps 625 mmHg 96%

    19 July, Friday

    Time Temperature Precipitation Wind Pressure Humidity
    00:00 +12°C° 0 mm 0 mps 625 mmHg 96%
    01:00 +11°C° 0 mm 0 mps 625 mmHg 97%
    02:00 +11°C° 0 mm 0 mps 625 mmHg 97%
    03:00 +11°C° 0 mm 0 mps 624 mmHg 97%
    04:00 +11°C° 0 mm 0 mps 625 mmHg 95%
    05:00 +12°C° 0 mm 0 mps 625 mmHg 94%
    06:00 +13°C° 0 mm 0 mps 625 mmHg 92%
    07:00 +16°C° 0 mm 1 mps 626 mmHg 79%
    08:00 +19°C° 0 mm 1 mps 627 mmHg 66%
    09:00 +20°C° 0 mm 2 mps 628 mmHg 54%
    10:00 +21°C° 0 mm 2 mps 628 mmHg 51%
    11:00 +23°C° 0 mm 2 mps 628 mmHg 48%
    12:00 +24°C° 0 mm 3 mps 628 mmHg 45%
    13:00 +23°C° 0 mm 2 mps 628 mmHg 47%
    14:00 +23°C° 0 mm 2 mps 627 mmHg 49%
    15:00 +23°C° 0 mm 2 mps 627 mmHg 50%
    16:00 +21°C° 0 mm 2 mps 626 mmHg 54%
    17:00 +22°C° 0 mm 1 mps 626 mmHg 59%
    18:00 +21°C° 0 mm 1 mps 626 mmHg 63%
    19:00 +19°C° 0 mm 1 mps 625 mmHg 68%
    20:00 +16°C° 0 mm 1 mps 624 mmHg 74%
    21:00 +14°C° 0 mm 1 mps 624 mmHg 80%
    22:00 +14°C° 0 mm 1 mps 624 mmHg 78%
    23:00 +14°C° 0 mm 1 mps 624 mmHg 76%

    20 July, Saturday

    Time Temperature Precipitation Wind Pressure Humidity
    00:00 +13°C° 0 mm 1 mps 623 mmHg 75%
    01:00 +14°C° 0 mm 1 mps 623 mmHg 75%
    02:00 +14°C° 0 mm 1 mps 623 mmHg 74%
    03:00 +14°C° 0 mm 1 mps 623 mmHg 74%
    04:00 +14°C° 0.2 mm 1 mps 623 mmHg 76%
    05:00 +15°C° 0.2 mm 2 mps 623 mmHg 78%
    06:00 +15°C° 0.2 mm 2 mps 624 mmHg 80%
    07:00 +17°C° 0 mm 2 mps 624 mmHg 73%
    08:00 +19°C° 0 mm 2 mps 625 mmHg 66%
    09:00 +20°C° 0 mm 2 mps 626 mmHg 58%
    10:00 +23°C° 0 mm 2 mps 627 mmHg 53%
    11:00 +24°C° 0 mm 2 mps 627 mmHg 48%
    12:00 +25°C° 0 mm 3 mps 628 mmHg 43%
    13:00 +25°C° 0.1 mm 3 mps 628 mmHg 44%
    14:00 +25°C° 0.1 mm 3 mps 628 mmHg 46%
    15:00 +25°C° 0.1 mm 3 mps 627 mmHg 47%
    16:00 +23°C° 0.2 mm 2 mps 627 mmHg 55%
    17:00 +21°C° 0.2 mm 2 mps 627 mmHg 63%
    18:00 +21°C° 0.2 mm 1 mps 627 mmHg 71%
    19:00 +19°C° 0 mm 1 mps 627 mmHg 78%
    20:00 +18°C° 0 mm 1 mps 626 mmHg 85%
    21:00 +15°C° 0 mm 1 mps 626 mmHg 92%
    22:00 +15°C° 0 mm 1 mps 626 mmHg 92%
    23:00 +14°C° 0 mm 1 mps 627 mmHg 92%

    21 July, Sunday

    Time Temperature Precipitation Wind Pressure Humidity
    00:00 +14°C° 0 mm 1 mps 627 mmHg 92%
    01:00 +13°C° 0 mm 0 mps 627 mmHg 92%
    02:00 +12°C° 0 mm 0 mps 626 mmHg 91%
    03:00 +12°C° 0 mm 0 mps 626 mmHg 91%
    04:00 +13°C° 0 mm 0 mps 627 mmHg 88%
    05:00 +13°C° 0 mm 0 mps 627 mmHg 86%
    06:00 +14°C° 0 mm 0 mps 627 mmHg 84%
    07:00 +18°C° 0 mm 1 mps 628 mmHg 74%
    08:00 +20°C° 0 mm 1 mps 629 mmHg 64%
    09:00 +21°C° 0 mm 2 mps 630 mmHg 54%
    10:00 +23°C° 0.1 mm 2 mps 631 mmHg 53%
    11:00 +24°C° 0.1 mm 2 mps 631 mmHg 52%
    12:00 +25°C° 0.1 mm 3 mps 631 mmHg 51%
    13:00 +24°C° 0.3 mm 3 mps 631 mmHg 52%
    14:00 +24°C° 0.3 mm 3 mps 631 mmHg 53%
    15:00 +24°C° 0.3 mm 3 mps 630 mmHg 54%
    16:00 +23°C° 0.8 mm 2 mps 630 mmHg 64%
    17:00 +21°C° 0.8 mm 2 mps 629 mmHg 73%
    18:00 +20°C° 0.8 mm 1 mps 629 mmHg 82%
    19:00 +19°C° 0.2 mm 1 mps 628 mmHg 86%
    20:00 +16°C° 0.2 mm 1 mps 628 mmHg 90%
    21:00 +15°C° 0.2 mm 1 mps 628 mmHg 93%
    22:00 +15°C° 0.2 mm 1 mps 628 mmHg 93%
    23:00 +14°C° 0.2 mm 1 mps 627 mmHg 92%
    Show more